Terug naar catalogus

BREEZE-M DEB

ActiefHEO
NORAD 34259·DEBRIS·🇷🇺 Russia

Gelanceerd Feb 28, 2006 vanaf Baikonur Cosmodrome

Loading…

Volgende Passages (komende 24 uur)

TLE

VersSource: Space-Track

Epoch: Sep 13, 2026, 17:46 UTC

1 34259U 06006CA  26256.74058630 -.00000046  00000-0  00000-0 0  9990
2 34259  51.1120  59.2635 4758543 105.8437 310.0992  5.08259260381978

Volg BREEZE-M DEB in realtime met AllMySat

Download on the App Store